695  
ASUS41 KLWX 230211  
RWRLWX  
 
REGIONAL WEATHER ROUNDUP  
NATIONAL WEATHER SERVICE BALTIMORE MD/WASHINGTON DC  
900 PM EST FRI FEB 22 2019  
 
NOTE: "FAIR" INDICATES FEW OR NO CLOUDS BELOW 12,000 FEET  
WITH NO SIGNIFICANT WEATHER AND/OR S TO VISIBILITY
.  
TC=TEMPERATURE CELSIUS  
 
* =NON NWS SITE. STATION DOES NOT REPORT PRECIPITATION (E.G. RAIN,  
SNOW, ETC.), THUNDER, OR FOG.
 
 
DCZ001-MDZ009-015-VAZ040>042-051-053>054-230300-  
WASHINGTON METRO  
 
CITY SKY/WX TMP DP RH WIND PRES REMARKS
 
WASHINGTON NAT CLOUDY 45 29 53 N3 30.45S  
DULLES CLOUDY 37 31 78 CALM 30.44S  
ANDREWS AFB FAIR 42 28 59 CALM 30.43R  
FT BELVOIR FAIR 42 29 62 CALM 30.44S  
QUANTICO FAIR 44 36 73 E5 30.45F  
COLLEGE PARK* FAIR 39 32 76 CALM 30.44F  
LEESBURG* FAIR 41 32 70 CALM 30.44F  
MANASSAS* FAIR 39 33 79 CALM 30.45  
GAITHERSBURG* FAIR 38 30 73 CALM 30.43F  
 

 
 
MDZ006>007-011-014-230300-  
BALTIMORE METRO  
 
CITY SKY/WX TMP DP RH WIND PRES REMARKS
 
BWI AIRPORT CLOUDY 41 27 57 CALM 30.44S  
MD SCIENCE CTR N/A 45 24 43 MISG 30.45S  
MARTIN STATE CLOUDY 41 30 65 CALM 30.46F  
ANNAPOLIS FAIR 43 32 65 CALM 30.45S  
FORT MEADE* FAIR 37 30 75 CALM 30.46F  
 

 
 
MDZ012-015-019>023-230300-  
MARYLAND EASTERN SHORE  
 
CITY SKY/WX TMP DP RH WIND PRES REMARKS
 
OCEAN CITY FAIR 40 35 83 CALM 30.44R  
SALISBURY FAIR 41 37 86 SE3 30.44S  
BAY BRIDGE AP* FAIR 39 36 87 CALM 30.45S  
CAMBRIDGE* CLEAR 41 34 75 CALM 30.44S  
EASTON* MOCLDY 43 30 61 N5 30.48S  
 

 
 
MDZ017>025-230300-  
SOUTHERN MARYLAND  
 
CITY SKY/WX TMP DP RH WIND PRES REMARKS
 
PATUXENT RIVER MOCLDY 43 33 68 CALM 30.44S  
ST INIGOES MOCLDY 46 31 55 CALM 30.44R  
LEONARDTOWN* FAIR 41 32 70 CALM 30.46R  
 

 
 
MDZ003>005-230300-  
NORTH CENTRAL MARYLAND  
 
CITY SKY/WX TMP DP RH WIND PRES REMARKS
 
FREDERICK* FAIR 37 34 87 CALM 30.46F  
HAGERSTOWN APT FAIR 40 24 53 CALM 30.42S  
WESTMINSTER* FAIR 37 23 56 CALM 30.42S  
 

 
 
MDZ501>502-230300-  
WESTERN MARYLAND  
 
CITY SKY/WX TMP DP RH WIND PRES REMARKS
 
OAKLAND* FAIR 32 23 69 SE13 30.31S WCI 22  
CUMBERLAND* FAIR 36 29 75 CALM 30.46S  
 

 
 
VAZ025>031-230300-  
SHENANDOAH VALLEY  
 
CITY SKY/WX TMP DP RH WIND PRES REMARKS
 
WINCHESTER* FAIR 34 30 86 CALM 30.44F  
FRONT ROYAL* FAIR 36 30 80 NE5 30.41F WCI 32  
LURAY* FAIR 39 32 75 CALM 30.41S  
NEW MARKET* FAIR 36 33 90 CALM 30.40S  
WAYNESBORO* CLOUDY 40 39 97 CALM 30.37F  
 

 
 
WVZ021-048>050-054>055-230300-  
EASTERN WEST VIRGINIA PANHANDLE  
 
CITY SKY/WX TMP DP RH WIND PRES REMARKS
 
MARTINSBURG FAIR 38 27 64 CALM 30.41F  
 

 
 
VAZ036>039-050-230300-  
CENTRAL FOOTHILLS  
 
CITY SKY/WX TMP DP RH WIND PRES REMARKS
 
CHARLOTTESVILL CLOUDY 45 33 63 NE5 30.40F  
CULPEPER* FAIR 41 33 75 CALM 30.45S  
ORANGE* CLOUDY 41 34 75 CALM 30.43S  
GORDONSVILLE* CLOUDY 42 38 86 CALM 30.41F  
WARRENTON* FAIR 40 33 77 CALM 30.43S  
 

 
 
VAZ055>057-230300-  
NORTH AND CENTRAL PIEDMONT  
 
CITY SKY/WX TMP DP RH WIND PRES REMARKS
 
FREDERICKSBRG* MOCLDY 45 32 60 CALM 30.43F  
STAFFORD* FAIR 44 32 63 CALM 30.48S  
 

 
 
NCZ024-NYZ072-PAZ021-071-VAZ022-071-230300-  
OTHER REGIONAL OBSERVATIONS  
 
CITY SKY/WX TMP DP RH WIND PRES REMARKS
 
NEW YORK CITY FAIR 39 21 48 MISG 30.46R  
PHILADELPHIA CLOUDY 41 23 48 NE5 30.44R  
PITTSBURGH CLOUDY 36 25 64 CALM 30.37R  
ROANOKE RAIN 40 38 93 SE7 30.42R FOG  
RICHMOND LGT RAIN 44 41 89 N3 30.44R  
RALEIGH LGT RAIN 42 41 96 E10G17 30.38F FOG  
 

 
 
ANZ530>537-230300-  
MARINE OBSERVATIONS  
 
STATION/POSITION TIME TEMP WIND PRES
 
AIR SEA DIR/SP/G  
(UTC) (F) (DEG/KT/KT) (MB)  
THOMAS PT LIGHT 0200 42 38 310/ 3/ 3 1031.9R  
BALT KEY BRIDGE 0142 43 40/ 3/ 4 1031.1S  
COVE POINT 0142 43 10/ 3/ 4 N/A  
LEWISETTA 0142 44 41 CALM 1030.7R  
SOLOMONS ISLAND 0142 42 40 270/ 2/ 2 1030.4S  
PINEY POINT 0142 260/ 2/ 3 N/A  
 

 
 
 
 
CLICK HERE TO GO TO PREVIOUS BULLETINS.

The Nexlab VA Page
The Nexlab MD Page
The Nexlab WV Page Main Text Page